Météo par heure à Abadin

Ce jour, 14 Avril, Mercredi

Heure Température Précipitation Vent Pression Humidité
00:00 +6°C° 0 mm 1 m/s 708 mmHg 97%
01:00 +6°C° 0 mm 1 m/s 708 mmHg 97%
02:00 +5°C° 0 mm 1 m/s 708 mmHg 97%
03:00 +5°C° 0 mm 1 m/s 708 mmHg 97%
04:00 +5°C° 0 mm 1 m/s 708 mmHg 97%
05:00 +5°C° 0 mm 1 m/s 708 mmHg 97%
06:00 +6°C° 0 mm 2 m/s 708 mmHg 88%
07:00 +8°C° 0 mm 2 m/s 708 mmHg 79%
08:00 +10°C° 0 mm 2 m/s 708 mmHg 70%
09:00 +12°C° 0 mm 3 m/s 708 mmHg 64%
10:00 +13°C° 0 mm 3 m/s 708 mmHg 58%
11:00 +16°C° 0 mm 3 m/s 708 mmHg 52%
12:00 +15°C° 0 mm 4 m/s 708 mmHg 53%
13:00 +14°C° 0 mm 4 m/s 708 mmHg 54%
14:00 +14°C° 0 mm 4 m/s 707 mmHg 56%
15:00 +12°C° 0 mm 4 m/s 707 mmHg 62%
16:00 +11°C° 0 mm 4 m/s 707 mmHg 68%
17:00 +8°C° 0 mm 4 m/s 707 mmHg 74%
18:00 +8°C° 0 mm 3 m/s 707 mmHg 78%
19:00 +5°C° 0 mm 3 m/s 707 mmHg 83%
20:00 +3°C° 0 mm 3 m/s 707 mmHg 88%
21:00 +3°C° 0 mm 3 m/s 707 mmHg 88%
22:00 +3°C° 0 mm 3 m/s 707 mmHg 87%
23:00 +2°C° 0 mm 3 m/s 707 mmHg 87%

Demain, 15 Avril, Jeudi

Heure Température Précipitation Vent Pression Humidité
00:00 +2°C° 0 mm 3 m/s 707 mmHg 86%
01:00 +2°C° 0 mm 3 m/s 707 mmHg 86%
02:00 +2°C° 0 mm 3 m/s 707 mmHg 86%
03:00 +2°C° 0 mm 3 m/s 707 mmHg 86%
04:00 +1°C° 0 mm 3 m/s 707 mmHg 87%
05:00 +1°C° 0 mm 3 m/s 707 mmHg 88%
06:00 +4°C° 0 mm 3 m/s 707 mmHg 78%
07:00 +6°C° 0 mm 4 m/s 708 mmHg 67%
08:00 +8°C° 0 mm 4 m/s 708 mmHg 57%
09:00 +10°C° 0 mm 4 m/s 708 mmHg 52%
10:00 +12°C° 0 mm 4 m/s 708 mmHg 48%
11:00 +13°C° 0 mm 4 m/s 708 mmHg 44%
12:00 +12°C° 0 mm 5 m/s 708 mmHg 46%
13:00 +12°C° 0 mm 5 m/s 708 mmHg 49%
14:00 +12°C° 0 mm 5 m/s 708 mmHg 51%
15:00 +9°C° 0 mm 5 m/s 708 mmHg 57%
16:00 +8°C° 0 mm 5 m/s 708 mmHg 62%
17:00 +6°C° 0 mm 4 m/s 708 mmHg 68%
18:00 +5°C° 0 mm 4 m/s 708 mmHg 72%
19:00 +4°C° 0 mm 4 m/s 708 mmHg 76%
20:00 +1°C° 0 mm 4 m/s 708 mmHg 80%
21:00 +1°C° 0 mm 4 m/s 708 mmHg 81%
22:00 0°C° 0 mm 4 m/s 708 mmHg 81%
23:00 +1°C° 0 mm 3 m/s 708 mmHg 82%

Après-demain, 16 Avril, Vendredi

Heure Température Précipitation Vent Pression Humidité
00:00 0°C° 0 mm 3 m/s 708 mmHg 83%
01:00 0°C° 0 mm 3 m/s 708 mmHg 84%
02:00 0°C° 0 mm 3 m/s 708 mmHg 85%
03:00 0°C° 0 mm 3 m/s 708 mmHg 84%
04:00 0°C° 0 mm 3 m/s 708 mmHg 84%
05:00 0°C° 0 mm 3 m/s 709 mmHg 83%
06:00 +2°C° 0 mm 3 m/s 709 mmHg 74%
07:00 +4°C° 0 mm 3 m/s 709 mmHg 66%
08:00 +6°C° 0 mm 4 m/s 710 mmHg 57%
09:00 +8°C° 0 mm 4 m/s 710 mmHg 52%
10:00 +10°C° 0 mm 4 m/s 710 mmHg 48%
11:00 +10°C° 0 mm 5 m/s 710 mmHg 44%
12:00 +10°C° 0 mm 5 m/s 710 mmHg 45%
13:00 +10°C° 0 mm 5 m/s 709 mmHg 46%
14:00 +10°C° 0 mm 5 m/s 709 mmHg 47%
15:00 +8°C° 0 mm 4 m/s 709 mmHg 53%
16:00 +7°C° 0 mm 4 m/s 709 mmHg 59%
17:00 +6°C° 0 mm 4 m/s 710 mmHg 64%
18:00 +4°C° 0 mm 4 m/s 710 mmHg 69%
19:00 +3°C° 0 mm 4 m/s 710 mmHg 73%
20:00 +2°C° 0 mm 3 m/s 710 mmHg 78%
21:00 +1°C° 0 mm 3 m/s 710 mmHg 80%
22:00 +1°C° 0 mm 3 m/s 710 mmHg 81%
23:00 0°C° 0 mm 3 m/s 710 mmHg 82%

17 Avril, Samedi

Heure Température Précipitation Vent Pression Humidité
00:00 +1°C° 0 mm 2 m/s 710 mmHg 84%
01:00 -1°C° 0 mm 2 m/s 710 mmHg 86%
02:00 -1°C° 0 mm 2 m/s 709 mmHg 88%
03:00 -2°C° 0 mm 2 m/s 709 mmHg 89%
04:00 -2°C° 0 mm 2 m/s 710 mmHg 90%
05:00 -2°C° 0 mm 2 m/s 710 mmHg 91%
06:00 +1°C° 0 mm 2 m/s 710 mmHg 75%
07:00 +4°C° 0 mm 2 m/s 710 mmHg 59%
08:00 +7°C° 0 mm 2 m/s 711 mmHg 44%
09:00 +9°C° 0 mm 3 m/s 711 mmHg 42%
10:00 +11°C° 0 mm 3 m/s 711 mmHg 39%
11:00 +13°C° 0 mm 3 m/s 710 mmHg 37%
12:00 +13°C° 0 mm 3 m/s 710 mmHg 39%
13:00 +13°C° 0 mm 3 m/s 710 mmHg 40%
14:00 +14°C° 0 mm 3 m/s 710 mmHg 42%
15:00 +12°C° 0 mm 3 m/s 710 mmHg 49%
16:00 +11°C° 0 mm 3 m/s 710 mmHg 56%
17:00 +9°C° 0 mm 2 m/s 710 mmHg 62%
18:00 +7°C° 0 mm 2 m/s 710 mmHg 74%
19:00 +5°C° 0 mm 2 m/s 710 mmHg 85%
20:00 +3°C° 0 mm 1 m/s 711 mmHg 96%
21:00 +3°C° 0 mm 1 m/s 710 mmHg 95%
22:00 +3°C° 0 mm 1 m/s 710 mmHg 94%
23:00 +3°C° 0 mm 1 m/s 710 mmHg 93%

18 Avril, Dimanche

Heure Température Précipitation Vent Pression Humidité
00:00 +3°C° 0 mm 1 m/s 710 mmHg 91%
01:00 +3°C° 0 mm 1 m/s 709 mmHg 88%
02:00 +4°C° 0 mm 1 m/s 709 mmHg 85%
03:00 +4°C° 0 mm 1 m/s 709 mmHg 83%
04:00 +5°C° 0 mm 1 m/s 709 mmHg 81%
05:00 +5°C° 0 mm 1 m/s 709 mmHg 78%
06:00 +8°C° 0 mm 1 m/s 709 mmHg 69%
07:00 +10°C° 0 mm 1 m/s 710 mmHg 61%
08:00 +13°C° 0 mm 1 m/s 710 mmHg 52%
09:00 +14°C° 0 mm 1 m/s 710 mmHg 46%
10:00 +15°C° 0 mm 1 m/s 710 mmHg 41%
11:00 +16°C° 0 mm 2 m/s 710 mmHg 36%
12:00 +14°C° 0.2 mm 2 m/s 709 mmHg 51%
13:00 +12°C° 0.2 mm 1 m/s 709 mmHg 66%
14:00 +10°C° 0.2 mm 1 m/s 709 mmHg 81%
15:00 +9°C° 0.5 mm 1 m/s 709 mmHg 87%
16:00 +9°C° 0.5 mm 1 m/s 709 mmHg 92%
17:00 +8°C° 0.5 mm 1 m/s 709 mmHg 97%
18:00 +8°C° 0.1 mm 1 m/s 709 mmHg 97%
19:00 +8°C° 0.1 mm 1 m/s 709 mmHg 97%
20:00 +8°C° 0.1 mm 1 m/s 709 mmHg 97%
21:00 +8°C° 0.3 mm 1 m/s 709 mmHg 97%
22:00 +7°C° 0.3 mm 1 m/s 709 mmHg 97%
23:00 +7°C° 0.3 mm 1 m/s 708 mmHg 97%

19 Avril, Lundi

Heure Température Précipitation Vent Pression Humidité
00:00 +7°C° 0.1 mm 1 m/s 708 mmHg 97%
01:00 +7°C° 0.1 mm 1 m/s 707 mmHg 97%
02:00 +6°C° 0.1 mm 2 m/s 707 mmHg 97%
03:00 +6°C° 0 mm 2 m/s 707 mmHg 97%
04:00 +6°C° 0 mm 2 m/s 707 mmHg 97%
05:00 +7°C° 0 mm 1 m/s 707 mmHg 98%
06:00 +7°C° 0 mm 2 m/s 707 mmHg 97%
07:00 +8°C° 0 mm 2 m/s 707 mmHg 95%
08:00 +8°C° 0 mm 2 m/s 707 mmHg 94%
09:00 +9°C° 0.1 mm 2 m/s 707 mmHg 94%
10:00 +9°C° 0.1 mm 2 m/s 707 mmHg 93%
11:00 +10°C° 0.1 mm 2 m/s 707 mmHg 93%
12:00 +10°C° 0.3 mm 2 m/s 707 mmHg 92%
13:00 +10°C° 0.3 mm 2 m/s 706 mmHg 92%
14:00 +12°C° 0.3 mm 2 m/s 706 mmHg 91%
15:00 +12°C° 0.3 mm 2 m/s 706 mmHg 91%
16:00 +10°C° 0.3 mm 2 m/s 706 mmHg 91%
17:00 +10°C° 0.3 mm 2 m/s 706 mmHg 91%
18:00 +9°C° 0.1 mm 2 m/s 706 mmHg 93%
19:00 +9°C° 0.1 mm 2 m/s 706 mmHg 95%
20:00 +9°C° 0.1 mm 1 m/s 707 mmHg 97%
21:00 +9°C° 0 mm 1 m/s 706 mmHg 97%
22:00 +9°C° 0 mm 1 m/s 706 mmHg 97%
23:00 +9°C° 0 mm 1 m/s 706 mmHg 97%
Voir plus

Nous avons besoin de votre consentement

Meteoprog et ses fournisseurs de services peuvent stocker et accéder à des données personnelles telles que des cookies, des identifiants d'appareils ou d'autres technologies similaires sur votre appareil et traiter ces données pour personnaliser le contenu et les publicités, ainsi que pour fournir des fonctionnalités de médias sociaux et analyser le trafic.

  • Stocker et/ou accéder à des informations sur votre appareil

    Des cookies, des identifiants d'appareils ou d'autres informations peuvent être stockés ou accessibles sur votre appareil aux fins indiquées ci-dessus.

  • Annonces et contenus personnalisés, mesure des annonces et des contenus, connaissance de l'audience et développement de produits

    Les annonces et le contenu peuvent être personnalisés en fonction d'un profil. D'autres données peuvent être ajoutées pour mieux personnaliser les annonces et le contenu. Les performances des publicités et du contenu peuvent être mesurées. Il est possible d'obtenir des informations sur le public qui a vu les publicités et le contenu. Ces données peuvent être utilisées pour développer ou améliorer l'expérience de l'utilisateur, les systèmes et les logiciels.

En cliquant sur "J'accepte", vous autorisez l'utilisation de cookies, des identifiants d'appareils, des balises web ou d'autres technologies similaires. Vos paramètres peuvent être modifiés dans le navigateur de votre appareil.

Dans certains cas, des intérêts légitimes peuvent être invoqués plutôt qu'un consentement. Vous pouvez en savoir plus à ce sujet dans notre Politique de confidentialité et de cookies.